Regional Weather Roundup
Issued by NWS Grand Forks, ND

Home | Current Version | Previous Version | Graphics & Text | Print | Product List | Glossary On
Versions: 1 2 3 4 5 6 7 8 9 10 11 12 13 14 15 16 17 18 19 20 21 22 23 24 25 26 27 28 29 30 31 32 33 34 35 36 37 38 39 40 41 42 43 44 45 46 47 48 49 50
000
ASUS43 KFGF 072210
RWRFGF
PRAIRIE TO PINES  WEATHER ROUNDUP
NATIONAL WEATHER SERVICE EASTERN NORTH DAKOTA/GRAND FORKS ND
500 PM CDT TUE JUL 07 2015

 **SATELLITE DATA USED TO AUGMENT SKY COVER AT AUTOMATED STATIONS**
 *****  WEATHER ACROSS EASTERN NORTH DAKOTA  *****

CITY           SKY/WX    TMP DP  RH WIND       PRES   REMARKS
GRAND FORKS    MOSUNNY   74  43  32 S13       30.07F
GRAND FRKS AFB MOSUNNY   73  46  37 S10       30.08F
GRAND FRKS NWS   N/A     73 N/A N/A S18         N/A
DEVILS LAKE    MOSUNNY   73  48  40 S13G20    30.04F
FARGO          SUNNY     73  43  33 S10       30.11S
WAHPETON ARPT  CLEAR     70  41  35 S7        30.13F
$$

 ***** WEATHER ACROSS CENTRAL AND WESTERN NORTH DAKOTA  *****

CITY           SKY/WX    TMP DP  RH WIND       PRES   REMARKS
BISMARCK       PTSUNNY   74  55  51 S15       30.04F
MINOT          SUNNY     75  54  47 S9        29.99F
JAMESTOWN      SUNNY     73  48  41 S13       30.08F
MINOT AFB      MOSUNNY   77  60  56 S9        29.98F
GARRISON         N/A     73  58  59 S14       30.01F
WILLISTON      MOSUNNY   82  44  26 SW9       29.97F
DICKINSON      MOSUNNY   71  58  63 SE16      29.98F
HETTINGER      MOSUNNY   75  57  53 SE21G28   29.99F
$$

 *****  OTHER AIRPORT OBSERVATIONS IN OUR AREA  *****

CITY           SKY/WX    TMP DP  RH WIND       PRES   REMARKS
WALHALLA       FAIR      72  48  43 MISG      30.04F
GRAFTON AIRPOR FAIR      72  48  43 SW13G18   30.07F
VALLEY CITY AR FAIR      72  43  35 SW13      30.10F
CANDO          FAIR      72  50  46 SW8G16    30.05F
CAVALIER APRT  FAIR      72  46  40 SW10      30.05F
GWINNER        FAIR      73  45  35 SE12      30.11F
SHEYENNE NWR     N/A     73  47  38 S7        29.95S
ROLLA          FAIR      68  50  52 SW14G20   30.04F
 ***** THE ABOVE OBSERVATIONS ARE NON NWS ARE NOT QUALITY
       CONTROLLED AND MAY MIS-REPORT RAIN FOR SNOW...
$$

  *****  WEATHER ACROSS NORTHERN MINNESOTA  *****

CITY           SKY/WX    TMP DP  RH WIND       PRES   REMARKS
FLAG ISLAND    SUNNY     70  52  52 S12G17    30.04F
WARROAD        SUNNY     70  52  52 SW9G17    30.08F
ROSEAU         SUNNY     72  52  49 SW10      30.08F
HALLOCK        SUNNY     72  46  40 SW10      30.06F
THF RVR FALLS  SUNNY     70  46  43 S10       30.11S
BAUDETTE       SUNNY     73  46  38 W9        30.07F
WASKISH        SUNNY     70  48  46 SW9       30.10F
CROOKSTON      SUNNY     72  46  40 SW10G16   30.10F
STEPHEN NDAWN    N/A     72  52  49 S9          N/A
GREENBUSH NDAW   N/A     72  46  40 SW9         N/A
$$
  *****  WEATHER ACROSS CENTRAL AND WEST MINNESOTA  *****

CITY           SKY/WX    TMP DP  RH WIND       PRES   REMARKS
FOSSTON        SUNNY     72  48  43 SW7       30.12S
BEMIDJI        SUNNY     71  46  41 SW8       30.11S
PARK RAPIDS    SUNNY     72  42  34 VRB6      30.12F
ELBOW LAKE     FAIR      69  47  45 SW6       30.14S
WADENA         SUNNY     70  43  37 S6        30.12F
DETROIT LAKES  SUNNY     70  37  30 S7        30.14S
MOORHEAD       SUNNY     72  45  37 S12       30.12F
FERGUS FALLS   SUNNY     70  45  40 CALM      30.13S
MORRIS MN      MOSUNNY   70  48  46 S6        30.14S
STAPLES        SUNNY     70  39  32 S3        30.13S
$$
  *****  WEATHER ELSEWHERE ACROSS MINNESOTA  *****

CITY           SKY/WX    TMP DP  RH WIND       PRES   REMARKS
DULUTH         MOSUNNY   71  44  37 W6        30.10F
INTRNTL FALLS  SUNNY     72  45  37 NW7       30.08F
ELY            SUNNY     70  41  35 W5        30.09S
CLOQUET        SUNNY     70  39  32 N5        30.11S
WHEATON        SUNNY     68  46  45 S7        30.15F
BRAINERD       SUNNY     70  42  36 N3        30.13F
HIBBING        SUNNY     71  42  35 CALM      30.10F
ALEXANDRIA     SUNNY     69  46  43 NW5       30.15F
SAINT CLOUD    MOSUNNY   70  44  39 CALM      30.13F
MINNEAPOLIS    PTSUNNY   72  48  42 N8        30.12F
$$

  *****  WEATHER ACROSS SOUTH DAKOTA  *****

CITY           SKY/WX    TMP DP  RH WIND       PRES   REMARKS
SIOUX FALLS    PTSUNNY   70  49  47 VRB6      30.14F
BROOKINGS      MOSUNNY   66  46  48 S5        30.16F
WATERTOWN      SUNNY     68  46  45 SE8       30.14F
HURON          MOSUNNY   70  45  40 SE8       30.11F
SISSETON         N/A     70  44  39 SW8       30.12F
ABERDEEN       SUNNY     74  45  35 S13       30.10F
MITCHELL       MOSUNNY   72  47  40 E7        30.13F
PIERRE         MOSUNNY   72  57  59 SE17      30.06F
MOBRIDGE       SUNNY     78  56  46 SE15      30.04F
RAPID CITY     MOSUNNY   73  57  57 S17G28    30.04F
$$

  *****  SOME WEATHER IN NEARBY STATES *****

CITY           SKY/WX    TMP DP  RH WIND       PRES   REMARKS
GLASGOW MT     PTSUNNY   82  44  26 W15       29.98S
GREAT FALLS MT PTSUNNY   65  51  60 N6        30.14F
CHEYENNE WY    CLOUDY    64  52  64 S13G21    30.17S HAZE
SCOTTSBLUFF NE CLOUDY    70  52  52 SE14      30.11S
OMAHA NE       PTSUNNY   73  52  47 NE7       30.10F
DES MOINES IA  MOSUNNY   73  50  44 E7        30.08F
DAVENPORT IA   MOSUNNY   71  55  56 N6        30.06S
CHICAGO IL     MOSUNNY   65  47  52 NE17      30.06R
EAU CLAIRE WI  MOSUNNY   71  46  40 VRB7      30.10S
LA CROSSE WI   MOSUNNY   71  48  43 N10       30.09F
$$

  *****  SOME NATIONAL WEATHER *****

CITY           SKY/WX    TMP DP  RH WIND       PRES   REMARKS
LA GUARDIA NY  PTSUNNY   84  72  67 S10       29.93F
RALEIGH NC     MOSUNNY   89  71  55 SW12      30.06F HX  95
ATLANTA GA     MOSUNNY   88  68  51 SW10      30.13S HX  91
NEW ORLEANS LA MOSUNNY   90  72  55 S13       30.07F HX  97
OKLAHOMA CITY  LGT RAIN  69  68  96 NE14      29.98F
ALBUQUERQUE NM CLOUDY    79  54  41 VRB3      30.12F
SALT LAKE CITY CLOUDY    83  52  34 W8        29.97F
LOS ANGELES CA MOSUNNY   70  62  76 W10       29.93F
BOISE ID       MOSUNNY   95  46  18 NW13      29.88F HX  91
SEATTLE WA     CLOUDY    77  54  44 W7        29.97F
$$

*** WEATHER ACROSS MANITOBA...SASKATCHEWAN AND ONTARIO ***
                ***ONTARIO***

CITY           SKY/WX    TMP DP  RH WIND       PRES   REMARKS
GERALDTON      MOSUNNY   72  50  46 W6        29.97S
THUNDER BAY    MOSUNNY   75  45  33 NW8       30.02F
SIOUX LOOKOUT  MOSUNNY   72  48  43 SW7       30.03F
TORONTO        LGT RAIN  73  70  88 W12       29.81F
BIG TROUT LK   SUNNY     75  46  35 W10G18    29.80F
PICKLE LAKE    MOSUNNY   75  45  33 W10G21    29.95S
DRYDEN         SUNNY     72  41  33 W14G20    30.05S
KENORA         MOSUNNY   70  50  49 S10G18    30.05F
$$
                *** MANITOBA***

CITY           SKY/WX    TMP DP  RH WIND       PRES   REMARKS
BRANDON        CLOUDY    73  54  49 SW10G17   29.98F
DAUPHIN        MOSUNNY   73  52  46 SW16G24   29.90S
ISLAND LAKE    MOSUNNY   73  46  38 SW16G26   29.79F
PILOT MOUND      N/A     70  48  46 S14G20      N/A
THE PAS        MOSUNNY   66  43  42 NW9       29.89F
THOMPSON       PTSUNNY   57  41  54 N9G24     29.86R
WINNIPEG       PTSUNNY   73  52  46 S16G24    30.01F
LYNN LAKE      PTSUNNY   57  39  51 NW21G29   29.88R
CHURCHILL      CLOUDY    48  45  87 NW14      29.71R
GILLAM         DRIZZLE   48  45  87 N22G29    29.77R
$$
                ***SASKATCHEWAN***

CITY           SKY/WX    TMP DP  RH WIND       PRES   REMARKS
ESTEVAN        PTSUNNY   70  57  64 E5        29.97F
KINDERSLEY     MOSUNNY   66  43  42 NW16G22   30.06S
LLOYDMINSTER   PTSUNNY   64  37  36 NW6       30.08F
PRINCE ALBERT  PTSUNNY   64  43  45 N13G23    30.00F
REGINA         PTSUNNY   79  52  38 NW13G25   29.93F
YORKTON        PTSUNNY   70  52  52 SW5       29.91F
N. BATTLEFORD  MOSUNNY   61  39  44 NW13      30.08S
LA RONGE       PTSUNNY   64  37  36 NW13G21   29.98S SMOKE
SASKATOON      PTSUNNY   63  46  55 N10G21    30.04F
SWIFT CURRENT  MOSUNNY   75  46  35 NW17G25   30.01S
$$
NOTE: THESE ARE AUTOMATED STATIONS WITH LIMITED QUALITY CONTROL
      "FAIR" INDICATES FEW OR NO CLOUDS BELOW 12,000 FEET WITH NO
      SIGNIFICANT WEATHER AND/OR OBSTRUCTIONS TO VISIBILITY.
      SKY/WX - SKY CONDITION AND SIGNIFICANT WEATHER.
      TMP - AIR TEMPERATURE.    DP   - DEWPOINT TEMPERATURE.
      RH  - RELATIVE HUMIDITY.  PRES - PRESSURE.
      HX  - HEAT INDEX.         WCI  - WIND CHILL INDEX.
$


USA.gov is the U.S. government's official web portal to all federal, state and local government web resources and services.